Regional Weather Roundup
Issued by NWS

Home | Current Version | Previous Version | Graphics & Text | Print | Product List | Glossary On
Versions: 1 2 3 4 5 6 7 8 9 10 11 12 13 14 15 16 17 18 19 20 21 22 23 24 25 26 27 28 29 30 31 32 33 34 35 36 37 38 39 40 41 42 43 44 45 46 47 48 49 50
000
ASUS43 KLOT 262003
RWRIL

ILLINOIS REGIONAL WEATHER ROUNDUP
NATIONAL WEATHER SERVICE CHICAGO/ROMEOVILLE IL
300 PM CDT MON SEP 26 2016

NOTE: "FAIR" INDICATES FEW OR NO CLOUDS BELOW 12,000 FEET WITH NO
SIGNIFICANT WEATHER AND/OR OBSTRUCTIONS TO VISIBILITY.

* THESE STATIONS ARE NOT UNDER NWS QUALITY CONTROL. THEY ALSO MAY NOT
  REPORT WEATHER SUCH AS PRECIPITATION OR FOG.

ILZ001-002-007-009-015-016-024-262100-
NORTHWEST ILLINOIS

CITY           SKY/WX    TMP DP  RH WIND       PRES   REMARKS
MOLINE         SUNNY     72  34  24 W17G31    30.01F
STERLING*      SUNNY     70  36  28 W26G35    29.97F
SAVANNA*       SUNNY     69  35  28 W16G30    29.97F
$$

ILZ003-004-008-010-011-017-018-262100-
NORTH CENTRAL ILLINOIS

CITY           SKY/WX    TMP DP  RH WIND       PRES   REMARKS
ROCKFORD       MOSUNNY   68  38  33 W21G29    29.96F
FREEPORT*      SUNNY     67  35  31 W22G29    29.97F
ROCHELLE*        N/A     67  37  32 W21G32    29.97F VSB 1
$$

ILZ005-006-012>014-019>023-262100-
NORTHEAST ILLINOIS

CITY           SKY/WX    TMP DP  RH WIND       PRES   REMARKS
CHICAGO-OHARE  MOSUNNY   69  35  28 W22G30    29.93S
CHICAGO-MIDWAY MOSUNNY   71  34  25 W15G31    29.93F
AURORA         SUNNY     71  35  26 W23G36    29.95F
LANSING*       SUNNY     70  42  35 W20G30    29.95F
JOLIET*        SUNNY     72  34  24 W15G29    29.96F
WAUKEGAN       SUNNY     67  38  34 W10G26    29.89F
DUPAGE AIRPORT SUNNY     69  35  28 W23G31    29.94F
KANKAKEE*      SUNNY     72  32  23 W14G26    29.99S
WHEELING       SUNNY     68  34  28 W21G31    29.93F
MORRIS*        SUNNY     72  32  23 W18G26    29.96F
ROMEOVILLE*    SUNNY     70  40  33 W16G30    29.96F
NORTHERLY ISL    N/A     69  31  24 W22         N/A
$$

LMZ740>746-262100-
SOUTHERN LAKE MICHIGAN

STATION/POSITION SKY/WX   TEMP    WIND        PRES    VSBY  WAVE
                          AIR SEA DIR/SP/G                  HT/PER
                          (F)     (DEG/KT/KT) (MB)    (MI)  (FT/S)
SOUTHERN BUOY              64 71  240/ 23/ 29 1011.4          4/ 5
WILMETTE HARBOR            65 63  300/ 17/ 25   N/A           4/ 3
HARRISON CRIB              67     260/ 22/ 28   N/A
BURNHAM HARBOR             69     270/ 15/ 19   N/A
CALUMET HARBOR             68     220/ 16/ 27 1013.5F
BURNS HARBOR               66     270/ 19/ 25 1014.6F
MICHIGAN CITY              65     240/ 25/ 28   N/A
MICHIGAN CITY 6N           66 66  270/ 19/ 25   N/A           5/ 5
ST. JOSEPH                 65 65  260/ 17/ 21 1013.6F         7/ 5
$$

ILZ025>027-034>036-040-047-049-050-058-095>099-262100-
WEST-CENTRAL ILLINOIS

CITY           SKY/WX    TMP DP  RH WIND       PRES   REMARKS
QUINCY         SUNNY     72  35  25 W15G22    30.10F
GALESBURG*     SUNNY     71  33  24 W23G30    30.04F
MACOMB*        SUNNY     73  32  22 W16G24    30.08F
JACKSONVILLE*  SUNNY     74  33  22 W12G23    30.08F
PITTSFIELD*    SUNNY     73  36  26 W10G18    30.11F
$$

ILZ028>032-037-038-041>044-048-051>054-059>061-262100-
CENTRAL ILLINOIS

CITY           SKY/WX    TMP DP  RH WIND       PRES   REMARKS
PONTIAC        SUNNY     73  36  25 W20G29    30.00F
BLOOMINGTON    SUNNY     71  34  25 W17G23    30.04F
DECATUR        SUNNY     74  36  25 W14G22    30.05F
PEORIA         SUNNY     72  34  24 W16G23    30.03F
LACON*         SUNNY     71  30  21 W15G26    30.00F
LINCOLN*       SUNNY     73  36  25 W9        30.05F
SPRINGFIELD    SUNNY     75  34  22 W13G20    30.06F
TAYLORVILLE    SUNNY     74  36  24 W16       30.07F
$$

ILZ033-039-045-046-055>057-062-063-262100-
EAST-CENTRAL ILLINOIS

CITY           SKY/WX    TMP DP  RH WIND       PRES   REMARKS
CHAMPAIGN      SUNNY     73  33  23 W18G25    30.04F
RANTOUL*       SUNNY     74  34  22 W17G24    30.02F
MATTOON        SUNNY     73  37  27 W12G21    30.05F
PARIS*         SUNNY     74  39  28 W7        30.05F
$$

ILZ079-100>102-262100-
SOUTHWEST ILLINOIS

CITY           SKY/WX    TMP DP  RH WIND       PRES   REMARKS
ALTON          SUNNY     73  37  27 W9        30.11F
BELLEVILLE     SUNNY     74  42  31 W9        30.10F
CAHOKIA*       SUNNY     75  35  23 NW9       30.12F
SPARTA*        SUNNY     72  45  37 NW6G17    30.13S
$$

ILZ064>066-069>071-074>076-080>082-084>086-088>090-092>094-262100-
SOUTH-CENTRAL ILLINOIS

CITY           SKY/WX    TMP DP  RH WIND       PRES   REMARKS
CARBONDALE     SUNNY     73  49  42 N9        30.11F
EFFINGHAM*     SUNNY     74  44  34 W12       30.09F
MT. VERNON     SUNNY     73  48  40 W8        30.11F
CENTRALIA*     SUNNY     74  44  34 NW7G18    30.09F
SALEM*         SUNNY     74  40  29 NW8G16    30.10S
METROPOLIS*    PTSUNNY   72  55  54 CALM      30.11F
$$

ILZ067-068-072-073-078-083-087-091-262100-
SOUTHEAST ILLINOIS

CITY           SKY/WX    TMP DP  RH WIND       PRES   REMARKS
LAWRENCEVILLE  SUNNY     73  43  33 W13       30.08F
FLORA*         SUNNY     74  43  32 W10       30.09F
FAIRFIELD*     SUNNY     72  46  40 NW3       30.09S
HARRISBURG*    MOSUNNY   72  53  52 NW6       30.10F
ROBINSON*      SUNNY     73  45  37 NW7       30.08S
CARMI*         MOSUNNY   74  47  38 NW12      30.09F
$$

ABBREVIATIONS USED IN REMARKS
   TC - TEMPERATURE IN CELSIUS
  WCI - WIND CHILL INDEX
   HX - HEAT INDEX
  VSB - VISIBILITY
$$




USA.gov is the U.S. government's official web portal to all federal, state and local government web resources and services.